This is the latest recevied weather packets stored in our database for station/object PY2SDN-13. If no packets are shown the sender has not sent any weather packets the latest 10 day(s).
| Time | Temp. | Humidity | Pressure | Rain* | Wind** | Luminosity | Snow |
|---|---|---|---|---|---|---|---|
| 1777534204 | 20° C | 26% | 1010.6 hPa | 0 mm | - | 0 W/m² | - |
| 1777533303 | 20.56° C | 26% | 1010.7 hPa | 0 mm | - | 0 W/m² | - |
| 1777532403 | 20.56° C | 26% | 1010.8 hPa | 0 mm | - | 0 W/m² | - |
| 1777531503 | 20.56° C | 26% | 1010.9 hPa | 0 mm | - | 0 W/m² | - |
| 1777530603 | 20.56° C | 26% | 1012.5 hPa | 0 mm | - | 0 W/m² | - |
| 1777529703 | 20.56° C | 26% | 1013.3 hPa | 0 mm | - | 0 W/m² | - |
| 1777528803 | 20.56° C | 26% | 1013.4 hPa | 0 mm | - | 0 W/m² | - |
| 1777527904 | 20.56° C | 26% | 1015.8 hPa | 0 mm | - | 0 W/m² | - |
| 1777527004 | 21.11° C | 26% | 1016.3 hPa | 0 mm | - | 0 W/m² | - |
| 1777526104 | 21.11° C | 26% | 1016.4 hPa | 0 mm | - | 0 W/m² | - |
| 1777525204 | 21.11° C | 26% | 1016.7 hPa | 0 mm | - | 0 W/m² | - |
| 1777524304 | 21.11° C | 26% | 1016.4 hPa | 0.25 mm | - | 0 W/m² | - |
| 1777523404 | 21.11° C | 26% | 1016.5 hPa | 0.51 mm | - | 0 W/m² | - |
| 1777522504 | 21.11° C | 26% | 1016.5 hPa | 1.02 mm | - | 0 W/m² | - |
| 1777521604 | 21.11° C | 26% | 1016.8 hPa | 1.02 mm | - | 0 W/m² | - |
| 1777520705 | 21.11° C | 26% | 1016.6 hPa | 0.51 mm | - | 0 W/m² | - |
| 1777519803 | 21.11° C | 26% | 1016.6 hPa | 0.25 mm | - | 0 W/m² | - |
| 1777518904 | 21.11° C | 26% | 1016.6 hPa | 0 mm | - | 0 W/m² | - |
| 1777518004 | 20.56° C | 26% | 1016.3 hPa | 0 mm | - | 0 W/m² | - |
| 1777517104 | 20.56° C | 26% | 1016.2 hPa | 0 mm | - | 0 W/m² | - |
| 1777516203 | 20.56° C | 26% | 1015.7 hPa | 0 mm | - | 0 W/m² | - |
| 1777515303 | 20.56° C | 26% | 1015.3 hPa | 0 mm | - | 0 W/m² | - |
| 1777514403 | 20.56° C | 26% | 1015.6 hPa | 0 mm | - | 0 W/m² | - |
| 1777513503 | 20.56° C | 26% | 1015.7 hPa | 0 mm | - | 0 W/m² | - |
| 1777512603 | 20.56° C | 26% | 1016.1 hPa | 0 mm | - | 0 W/m² | - |
* Rain latest hour (hover to see other rain measurements)
** Current wind speed in m/s (hover to see current wind gust speed)